Regional Weather Roundup
Issued by NWS Northern Indiana

Home | Current Version | Previous Version | Text Only | Print | Product List | Glossary Off
Versions: 1 2 3 4 5 6 7 8 9 10 11 12 13 14 15 16 17 18 19 20 21 22 23 24 25 26 27 28 29 30 31 32 33 34 35 36 37 38 39 40 41 42 43 44 45 46 47 48 49 50

000
ASUS43 KIWX 110410
RWRIWX

KIWX WEATHER ROUNDUP
NATIONAL WEATHER SERVICE NORTHERN INDIANA
1200 AM EDT FRI JUL 11 2014

NOTE: "FAIR" INDICATES FEW OR NO CLOUDS BELOW 12,000 FEET WITH NO
SIGNIFICANT WEATHER AND/OR OBSTRUCTIONS TO VISIBILITY.

* THESE STATIONS ARE NOT UNDER NWS QUALITY CONTROL. THEY ALSO MAY NOT
  REPORT WEATHER SUCH AS PRECIPITATION OR FOG.

INZ001>027-110500-
NORTHERN INDIANA

CITY           SKY/WX    TMP DP  RH WIND       PRES   REMARKS
GARY*          CLEAR     60  58  92 CALM      30.19R
VALPARAISO     CLEAR     56  51  84 NE3       30.19R
MICHIGAN CITY* CLEAR     55  54  94 CALM      30.20R
LAPORTE*       CLEAR     56  53  90 CALM      30.20R
KNOX*          CLEAR     56  53  89 CALM      30.18S
SOUTH BEND     CLEAR     60  54  80 CALM      30.20R
GOSHEN         CLEAR     60  56  86 CALM      30.19R
MONTICELLO*    CLEAR     61  56  83 CALM      30.17S
LOGANSPORT*    CLEAR     59  52  77 CALM      30.19R
ROCHESTER*     CLEAR     61  54  77 CALM      30.19R
WARSAW*        CLEAR     57  54  88 CALM      30.19R
ANGOLA*        CLEAR     57  55  94 CALM      30.19R
FORT WAYNE     CLEAR     61  54  77 CALM      30.19R
HUNTINGTON*    CLEAR     59  55  85 CALM      30.19R
PERU/GRISSOM   CLEAR     61  58  88 CALM      30.18R
MARION*        CLEAR     58  54  86 CALM      30.19S

$$
INZ028>050-110500-
CENTRAL INDIANA

CITY           SKY/WX    TMP DP  RH WIND       PRES   REMARKS
LAFAYETTE      CLEAR     60  57  89 CALM      30.17R
KOKOMO*        CLEAR     61  54  77 CALM      30.19R
MUNCIE*        CLEAR     63  55  75 CALM      30.19R
INDIANAPOLIS   CLEAR     67  53  61 NE6       30.17R

$$
MIZ043>046-050>051-056>058-064>065-071>073-077>080-110500-
SOUTHWEST LOWER MICHIGAN

CITY           SKY/WX    TMP DP  RH WIND       PRES   REMARKS
BATTLE CREEK   CLEAR     62  55  77 CALM      30.20R
BENTON HARBOR  CLEAR     56  54  93 CALM      30.19R
COLDWATER*     CLEAR     60  58  92 CALM      30.19S
HILLSDALE*     CLEAR     59  58  97 CALM      30.20R
HOLLAND        CLEAR     60  55  83 CALM      30.19S
GRAND RAPIDS   CLEAR     64  55  72 CALM      30.19S
KALAMAZOO      CLEAR     60  55  83 CALM      30.19S
STURGIS*       CLEAR     57  55  94 CALM      30.19R
THREE RIVERS*  FAIR      60  58  92 CALM      30.19R

$$
OHZ001>008-015>018-024>025-110500-
NORTHWEST OHIO

CITY           SKY/WX    TMP DP  RH WIND       PRES   REMARKS
WAUSEON*       FAIR      61  57  88 N3        30.18S
DEFIANCE       CLEAR     63  55  75 CALM      30.18R
FINDLAY        CLEAR     66  58  75 E5        30.17R
TOLEDO EXPRESS CLEAR     61  57  87 CALM      30.17R
TOLEDO METCALF CLEAR     65  57  75 E3        30.19R
LIMA           CLEAR     64  56  75 CALM      30.18R

$$
&&



USA.gov is the U.S. government's official web portal to all federal, state and local government web resources and services.